Home > Weather > Aliso Viejo > Past weeks

Flag for USA Past Weather in Aliso Viejo, California, USA — Yesterday and Last 2 Weeks

Now
59 °F

Clear.


Feels Like: 60 °F
Forecast: 58 / 70 °F
Wind: 3 mph from South

Location: John Wayne Airport-Orange County Airport

Current Time: May 26, 2016 at 1:49:50 AM

Latest Report: May 26, 2016 at 12:53 AM


Visibility: 10 mi

Pressure: 30.07 "Hg

Humidity: 81%

Dew Point: 53 °F

Location of Aliso ViejoLocation

Past Weather in Aliso Viejo — Graph

°F

Aliso Viejo Temperature Yesterday

Maximum temperature yesterday: 70 °F (at 1:53 PM)
Minimum temperature yesterday: 56 °F (at 4:53 AM)
Average temperature yesterday: 62 °F

High & Low Weather Summary for the Past Weeks

 TemperatureHumidityPressure
High72 °F (May 13, 1:53 PM)87% (May 12, 4:53 AM)30.10 "Hg (May 12, 4:53 AM)
Low56 °F (May 22, 4:53 AM)35% (May 25, 2:53 PM)29.83 "Hg (May 20, 4:53 AM)
Average63 °F70%29.96 "Hg
* Reported May 10 11:00 PM — May 25 11:53 PM, Aliso Viejo, Weather by CustomWeather, © 2016

Note: Actual official high and low records may vary slightly from our data, if they occured in-between our weather recording intervals... More about our weather records

Advertising

Aliso Viejo Weather History for the Previous 24 Hours

Scroll right to see more
 ConditionsComfort  
Time TempWeatherWind HumidityBarometerVisibility
11:53 PM
Wed, May 25
59 °FClear.5 mph81%30.08 "Hg10 mi
10:53 PM60 °FClear.3 mph78%30.09 "Hg10 mi
9:53 PM60 °FPassing clouds.3 mph78%30.09 "Hg10 mi
8:53 PM61 °FPassing clouds.3 mph75%30.08 "Hg10 mi
7:53 PM62 °FScattered clouds.7 mph70%30.08 "Hg10 mi
6:53 PM64 °FScattered clouds.9 mph61%30.07 "Hg10 mi
5:53 PM64 °FScattered clouds.9 mph58%30.06 "Hg10 mi
4:53 PM66 °FScattered clouds.12 mph54%30.07 "Hg10 mi
3:53 PM69 °FPartly sunny.12 mph35%30.07 "Hg10 mi
2:53 PM69 °FPartly sunny.13 mph35%30.08 "Hg10 mi
1:53 PM70 °FScattered clouds.10 mph38%30.09 "Hg10 mi
12:53 PM68 °FScattered clouds.15 mph49%30.09 "Hg10 mi
11:53 AM66 °FScattered clouds.10 mph54%30.10 "Hg10 mi
10:53 AM65 °FBroken clouds.3 mph59%30.09 "Hg10 mi
9:53 AM65 °FBroken clouds.7 mph56%30.09 "Hg10 mi
8:53 AM63 °FScattered clouds.3 mph60%30.07 "Hg10 mi
7:53 AM62 °FScattered clouds.3 mph65%30.06 "Hg10 mi
6:53 AM59 °FScattered clouds.No wind75%30.06 "Hg10 mi
5:53 AM56 °FPassing clouds.3 mph77%30.05 "Hg10 mi
4:53 AM56 °FClear.3 mph77%30.04 "Hg10 mi
3:53 AM58 °FClear.3 mph75%30.03 "Hg10 mi
2:53 AM58 °FClear.No wind75%30.03 "Hg10 mi
1:53 AM59 °FClear.No wind72%30.04 "Hg10 mi
Weather by CustomWeather, © 2016

See weather overviewHow to use our weather pages